FW2608 Weather Reports


Display with metric or nautical units.
time (UTC)temp
F
wind
direction
speed
MPH
gust
MPH
rain 1hr
in
rain 24hr
in
rain mn
in
humidity
%
barometer
mb
20260503174536 80 22 1.0 4.0 0.00 0.00 0.00 46 1015.0
20260503173037 79 40 1.0 4.0 0.00 0.00 0.00 50 1015.1
20260503171535 77 40 2.0 4.0 0.00 0.00 0.00 55 1015.2
20260503120142 44 212 1.0 3.0 0.00 0.00 0.00 96 1015.3
20260503110111 46 247 1.0 3.0 0.00 0.00 0.00 95 1015.5
20260503071533 52 247 0.0 0.0 0.00 0.00 0.00 92 1015.2
20260503070108 53 247 0.0 0.0 0.00 0.00 0.00 92 1015.2
20260503054643 56 258 0.0 2.0 0.00 0.00 0.00 87 1015.0
20260503044643 57 97 0.0 2.0 0.00 0.00 0.00 84 1014.6
20260503041535 58 56 1.0 2.0 0.00 0.00 0.00 82 1014.5
20260503040040 59 117 0.0 2.0 0.00 0.00 0.00 80 1014.3
20260503034532 61 157 0.0 0.0 0.00 0.00 0.00 78 1013.9
20260503033143 62 157 0.0 2.0 0.00 0.00 0.00 77 1013.5
20260503031535 63 58 1.0 3.0 0.00 0.00 0.00 75 1013.1
20260503030032 65 112 0.0 0.0 0.00 0.00 0.00 73 1012.8
20260503023152 68 120 1.0 3.0 0.00 0.00 0.00 68 1012.6
20260503021535 69 72 1.0 4.0 0.00 0.00 0.00 65 1012.5
20260503014534 72 22 1.0 2.0 0.00 0.00 0.00 59 1012.3
20260503013033 74 355 1.0 2.0 0.00 0.00 0.00 56 1012.4
20260503011536 76 20 2.0 4.0 0.00 0.00 0.00 52 1012.3
20260503004535 80 5 1.0 4.0 0.00 0.00 0.00 48 1012.3
20260503003143 80 44 1.0 4.0 0.00 0.00 0.00 48 1012.3
20260503000038 83 35 3.0 7.0 0.00 0.00 0.00 44 1012.4
20260502234532 82 11 1.0 4.0 0.00 0.00 0.00 45 1012.6
20260502231535 80 1 3.0 5.0 0.00 0.00 0.00 48 1013.0
20260502230042 79 353 2.0 4.0 0.00 0.00 0.00 49 1013.1
20260502224531 79 337 3.0 6.0 0.00 0.00 0.00 50 1013.5
20260502223036 79 341 3.0 6.0 0.00 0.00 0.00 51 1013.7
20260502221534 79 352 3.0 7.0 0.00 0.00 0.00 53 1013.9
20260502220039 77 359 3.0 7.0 0.00 0.00 0.00 55 1014.1
20260502214531 75 13 1.0 5.0 0.00 0.00 0.00 56 1014.4
20260502213143 74 355 2.0 7.0 0.00 0.00 0.00 57 1014.6
20260502211552 74 355 1.0 5.0 0.00 0.00 0.00 56 1014.8
20260502204532 69 147 0.0 5.0 0.00 0.00 0.00 65 1015.5
20260502203037 65 260 2.0 6.0 0.00 0.00 0.00 70 1015.5
20260502194532 63 311 2.0 7.0 0.00 0.00 0.00 69 1015.7
20260502193141 64 349 3.0 8.0 0.00 0.00 0.00 68 1016.3
20260502191645 65 346 3.0 7.0 0.00 0.00 0.00 68 1016.6
20260502190029 65 330 2.0 5.0 0.00 0.00 0.00 68 1016.9
20260502184537 64 343 3.0 7.0 0.00 0.00 0.00 70 1017.1
20260502181536 65 347 2.0 7.0 0.00 0.00 0.00 71 1017.0